Retour au catalogue

DELTA 4 R/B

ActifHEO
NORAD 29250·ROCKET BODY·🇺🇸 United States

Lancé Jun 28, 2006 depuis Vandenberg Space Force Base

Loading…

Prochains Passages (prochaines 24 heures)

TLE

FraisSource: Space-Track

Époque: Sep 13, 2026, 23:42 UTC

1 29250U 06027B   26256.98779181  .00000030  00000-0  00000-0 0  9997
2 29250  63.0478 271.5921 6554674 255.8669  27.9192  2.17604559 59679

Suivez DELTA 4 R/B en temps réel avec AllMySat

Download on the App Store